Location: �perlecques
(50.8057°N, 2.1521°E)
Time: 12:32:10
(UTC+00:00)

ITAMSAT 1 - Visible Passes

Search period start: 02 April 2023 00:00
Search period end: 12 April 2023 00:00
Orbit: 784 x 795 km, 98.8° (Epoch: 01 April)

Date Brightness Start Highest point End Pass type
(mag) Time Alt. Az. Time Alt. Az. Time Alt. Az.
02 Apr 8.5 19:47:38 10° S 19:52:43 52° W 19:57:51 10° NNW visible
03 Apr 7.7 19:17:45 10° SSE 19:22:59 88° WSW 19:28:16 10° NNW visible
03 Apr 10.3 21:00:18 10° WSW 21:03:12 15° W 21:06:07 10° NW visible
04 Apr 9.7 20:28:52 10° SSW 20:33:09 25° W 20:37:29 10° NW visible
05 Apr 8.8 19:58:18 10° S 20:03:15 43° W 20:08:15 10° NNW visible
06 Apr 7.9 19:28:15 10° S 19:33:28 74° WSW 19:38:44 10° NNW visible
06 Apr 10.4 21:11:49 10° WSW 21:13:50 12° W 21:15:53 10° WNW visible
07 Apr 7.7 18:58:39 10° SSE 19:03:49 66° ENE 19:09:02 10° N visible
07 Apr 10.0 20:39:49 10° SW 20:43:45 21° W 20:47:43 10° NW visible
08 Apr 9.2 20:09:01 10° SSW 20:13:48 36° W 20:18:37 10° NNW visible
09 Apr 8.2 19:38:48 10° S 19:43:58 62° WSW 19:49:11 10° NNW visible
10 Apr 7.7 19:09:03 10° SSE 19:14:17 79° ENE 19:19:33 10° NNW visible
10 Apr 10.2 20:50:52 10° SW 20:54:20 18° W 20:57:51 10° NW visible
11 Apr 9.5 20:19:47 10° SSW 20:24:21 30° W 20:28:57 10° NNW visible
